"startDT [UTC]","vpos","CH4 [ppm]","stdev(CH4) [ppm]","CO2 [ppm]","stdev(CO2) [ppm]","H2O [ppm]","stdev(H2O)","p_LGR [torr]","T_LGR [C]","mt1_LGR [us]","mt2_LGR [us]","T_ECpre [C]","T_EC1 [C]","T_EC2 [C]","p_inlet [hPa]","p_in [hPa]","p_out [hPa]","T_inlet [C]","RH_inlet [%]","dwpt_inlet [C]","T_vent [C]","RH_vent [%]","dwpt_vent [C]","flow_vent [l min-1]","flow_inlet [l min-1]","dwpt_sample [C]","T_room [C]"
2012-11-12 00:00:00,0.0,1.9009,0.0008,398.67,0.24,139.9,27.1,138.06,31.00,24.65,36.43,0.04,-272.75,-272.75,-47,568,-950,25.5,2.8,-23.6,25.5,2.9,-23.3,5.73,2.39,-24.8,30.4
2012-11-12 00:01:00,0.0,1.9001,0.0008,398.61,0.26,137.8,30.2,138.06,31.00,24.65,36.43,0.04,-272.74,-272.75,-47,568,-949,25.6,4.1,-19.3,25.5,4.2,-19.2,5.73,2.39,-24.7,30.4
2012-11-12 00:02:00,0.0,1.9002,0.0012,398.61,0.23,140.1,31.2,138.05,31.00,24.65,36.42,0.04,-272.75,-272.74,-47,568,-949,25.6,3.0,-22.9,25.5,3.1,-22.5,5.73,2.40,-24.8,30.4
2012-11-12 00:03:00,0.0,1.8990,0.0010,398.58,0.24,146.9,31.0,138.06,31.00,24.65,36.43,0.04,-272.75,-272.75,-47,568,-950,25.5,2.8,-23.7,25.5,2.8,-23.4,5.73,2.42,-24.8,30.4
2012-11-12 00:04:00,0.0,1.8977,0.0010,398.52,0.22,147.9,31.2,138.05,31.00,24.66,36.42,0.04,-272.75,-272.75,-47,568,-949,25.6,2.8,-23.7,25.5,2.8,-23.5,5.73,2.42,-24.8,30.4
2012-11-12 00:05:00,0.0,1.8982,0.0009,398.46,0.21,146.1,26.6,138.05,31.00,24.65,36.43,0.04,-272.74,-272.74,-47,568,-949,25.5,2.8,-23.6,25.5,2.9,-23.3,5.73,2.44,-24.8,30.4
2012-11-12 00:06:00,0.0,1.8981,0.0012,398.56,0.18,148.9,28.2,138.05,31.00,24.65,36.43,0.04,-272.75,-272.75,-47,568,-950,25.6,2.8,-23.4,25.5,2.9,-23.2,5.73,2.43,-24.8,30.4
2012-11-12 00:07:00,0.0,1.8981,0.0009,398.54,0.27,145.9,30.1,138.05,31.00,24.66,36.43,0.04,-272.75,-272.75,-47,568,-949,25.6,2.9,-23.2,25.5,2.9,-23.1,5.73,2.43,-24.8,30.4
2012-11-12 00:08:00,0.0,1.8979,0.0010,398.71,0.21,145.8,27.2,138.05,31.00,24.65,36.42,0.04,-272.75,-272.75,-47,568,-949,25.6,3.0,-22.7,25.5,3.1,-22.5,5.73,2.42,-24.7,30.4
2012-11-12 00:09:00,0.0,1.8971,0.0009,398.45,0.22,149.6,30.8,138.05,31.00,24.65,36.43,0.04,-272.75,-272.75,-47,568,-949,25.6,2.9,-23.2,25.6,3.0,-22.9,5.73,2.41,-24.8,30.4
2012-11-12 00:10:00,0.0,1.8970,0.0009,398.51,0.22,147.1,35.1,138.05,31.00,24.65,36.43,0.04,-272.75,-272.75,-47,568,-949,25.6,2.8,-23.4,25.6,2.9,-23.1,5.73,2.40,-24.8,30.4
2012-11-12 00:11:00,0.0,1.8970,0.0009,398.51,0.24,147.7,30.0,138.05,31.00,24.65,36.43,0.04,-272.75,-272.75,-47,568,-949,25.6,2.8,-23.4,25.5,2.9,-23.2,5.73,2.39,-24.8,30.4
2012-11-12 00:12:00,0.0,1.8969,0.0010,398.48,0.21,148.1,31.5,138.05,31.00,24.66,36.43,0.04,-272.75,-272.75,-47,568,-949,25.6,2.8,-23.3,25.5,2.9,-23.1,5.73,2.39,-24.8,30.4
2012-11-12 00:13:00,0.0,1.8971,0.0011,398.58,0.20,142.9,28.7,138.06,31.00,24.66,36.42,0.04,-272.75,-272.75,-47,568,-949,25.6,2.9,-23.2,25.5,3.0,-23.0,5.73,2.39,-24.8,30.4
2012-11-12 00:14:00,0.0,1.8972,0.0010,398.57,0.24,141.6,32.1,138.05,31.00,24.65,36.42,0.04,-272.75,-272.75,-47,568,-949,25.6,2.9,-23.1,25.6,3.0,-22.8,5.73,2.40,-24.8,30.4
2012-11-12 00:15:00,0.0,1.8971,0.0008,398.56,0.21,140.0,31.7,138.05,31.00,24.66,36.43,0.04,-272.75,-272.75,-47,568,-949,25.6,3.0,-22.9,25.6,3.0,-22.6,5.73,2.41,-24.8,30.4
2012-11-12 00:16:00,0.0,1.8973,0.0009,398.63,0.19,139.5,30.8,138.06,31.00,24.65,36.42,0.04,-272.75,-272.75,-47,568,-949,25.5,3.0,-22.7,25.5,3.1,-22.5,5.73,2.42,-24.8,30.4
2012-11-12 00:17:00,0.0,1.8977,0.0010,398.60,0.20,147.8,29.0,138.05,31.00,24.65,36.43,0.04,-272.75,-272.75,-47,568,-949,25.5,3.0,-22.6,25.5,3.1,-22.3,5.73,2.43,-24.8,30.4
2012-11-12 00:18:00,0.0,1.8979,0.0012,398.59,0.22,145.6,26.0,138.05,31.00,24.65,36.43,0.04,-272.74,-272.75,-47,568,-950,25.5,3.1,-22.5,25.5,3.1,-22.3,5.73,2.43,-24.8,30.4
2012-11-12 00:19:00,0.0,1.8988,0.0011,398.69,0.22,136.6,31.9,138.06,31.00,24.65,36.42,0.04,-272.74,-272.75,-47,568,-949,25.5,3.1,-22.5,25.6,3.1,-22.3,5.73,2.43,-24.8,30.4
2012-11-12 00:20:00,0.0,1.8982,0.0009,398.63,0.23,148.1,29.3,138.06,31.00,24.66,36.42,0.04,-272.75,-272.75,-47,568,-949,25.5,3.0,-22.6,25.5,3.1,-22.4,5.73,2.42,-24.8,30.4
2012-11-12 00:21:00,0.0,1.8975,0.0012,398.49,0.21,143.6,28.0,138.06,31.00,24.65,36.43,0.04,-272.75,-272.75,-47,568,-949,25.5,3.0,-22.8,25.5,3.1,-22.5,5.73,2.40,-24.8,30.4
2012-11-12 00:22:00,0.0,1.8978,0.0009,398.53,0.28,132.5,28.7,138.06,31.00,24.65,36.43,0.04,-272.74,-272.75,-47,568,-949,25.5,3.0,-22.9,25.5,3.1,-22.6,5.73,2.39,-24.8,30.4
2012-11-12 00:23:00,0.0,1.8980,0.0010,398.46,0.20,145.1,30.3,138.05,31.00,24.65,36.44,0.04,-272.75,-272.75,-47,568,-949,25.5,3.0,-22.9,25.5,3.0,-22.6,5.73,2.39,-24.8,30.4
2012-11-12 00:24:00,0.0,1.8989,0.0010,398.58,0.25,146.9,31.0,138.06,30.99,24.65,36.43,0.04,-272.75,-272.75,-47,568,-949,25.5,3.0,-22.9,25.5,3.0,-22.7,5.73,2.39,-24.8,30.4
2012-11-12 00:25:00,0.0,1.8984,0.0010,398.53,0.22,146.9,32.0,138.06,30.99,24.66,36.43,0.04,-272.74,-272.75,-47,568,-949,25.5,2.9,-23.0,25.5,3.0,-22.8,5.73,2.39,-24.8,30.4
2012-11-12 00:26:00,0.0,1.8989,0.0008,398.51,0.26,151.6,33.6,138.05,30.99,24.66,36.43,0.04,-272.75,-272.75,-47,568,-949,25.5,2.9,-23.0,25.5,3.0,-22.8,5.73,2.41,-24.8,30.4
2012-11-12 00:27:00,0.0,1.8996,0.0007,398.51,0.21,142.7,35.0,138.05,30.99,24.65,36.43,0.04,-272.75,-272.75,-47,568,-950,25.5,2.9,-23.1,25.5,3.0,-22.9,5.73,2.42,-24.8,30.4
2012-11-12 00:28:00,0.0,1.8995,0.0011,398.48,0.20,145.6,30.9,138.05,30.99,24.65,36.43,0.04,-272.75,-272.75,-47,568,-949,25.5,2.9,-23.1,25.5,3.0,-22.8,5.73,2.43,-24.8,30.3
2012-11-12 00:29:00,0.0,1.8997,0.0010,398.57,0.27,138.9,24.0,138.06,30.99,24.65,36.43,0.04,-272.74,-272.74,-47,568,-949,25.5,2.9,-23.1,25.5,3.0,-22.9,5.73,2.44,-24.8,30.3
2012-11-12 00:30:00,0.0,1.9000,0.0009,398.56,0.24,151.5,35.3,138.06,31.00,24.65,36.43,0.04,-272.75,-272.75,-47,568,-949,25.6,2.9,-23.2,25.5,3.0,-23.0,5.73,2.43,-24.8,30.4
2012-11-12 00:31:00,0.0,1.8998,0.0010,398.60,0.22,138.9,33.3,138.06,31.00,24.66,36.43,0.04,-272.75,-272.75,-47,568,-949,25.6,2.9,-23.3,25.5,3.0,-23.0,5.73,2.42,-24.8,30.4
2012-11-12 00:32:00,0.0,1.9005,0.0010,398.78,0.20,139.4,33.7,138.05,31.00,24.66,36.42,0.04,-272.74,-272.74,-47,568,-949,25.5,2.9,-23.3,25.5,2.9,-23.1,5.73,2.41,-24.8,30.4
2012-11-12 00:33:00,0.0,1.9013,0.0011,398.68,0.22,144.9,29.5,138.05,31.00,24.65,36.43,0.04,-272.75,-272.75,-47,568,-949,25.5,2.8,-23.5,25.5,2.9,-23.2,5.73,2.39,-24.8,30.4
2012-11-12 00:34:00,0.0,1.9045,0.0013,398.64,0.21,141.0,26.5,138.05,31.00,24.65,36.43,0.04,-272.75,-272.75,-47,568,-949,25.5,2.8,-23.6,25.5,2.9,-23.3,5.73,2.39,-24.9,30.4
2012-11-12 00:35:00,0.0,1.9051,0.0010,398.73,0.25,142.8,29.5,138.05,31.00,24.65,36.42,0.04,-272.74,-272.75,-47,568,-949,25.5,2.8,-23.7,25.5,2.8,-23.4,5.73,2.39,-24.8,30.4
2012-11-12 00:36:00,0.0,1.9043,0.0009,398.64,0.23,149.7,31.5,138.06,31.00,24.66,36.42,0.04,-272.75,-272.75,-47,568,-949,25.5,2.8,-23.8,25.5,2.8,-23.5,5.73,2.39,-24.9,30.4
2012-11-12 00:37:00,0.0,1.9042,0.0009,398.56,0.23,134.7,28.5,138.05,31.00,24.65,36.43,0.04,-272.75,-272.75,-47,568,-949,25.5,2.7,-23.8,25.5,2.8,-23.6,5.73,2.40,-24.9,30.4
2012-11-12 00:38:00,0.0,1.9041,0.0009,398.63,0.21,138.6,29.5,138.06,31.00,24.66,36.43,0.04,-272.75,-272.75,-47,568,-949,25.5,2.7,-23.8,25.5,2.8,-23.6,5.73,2.42,-24.9,30.4
2012-11-12 00:39:00,0.0,1.9040,0.0009,398.55,0.20,141.3,30.8,138.05,31.00,24.65,36.43,0.04,-272.75,-272.75,-47,568,-949,25.5,2.7,-23.9,25.5,2.8,-23.6,5.73,2.43,-24.9,30.3
2012-11-12 00:40:00,0.0,1.9040,0.0010,398.58,0.22,137.1,26.2,138.05,31.00,24.65,36.43,0.04,-272.75,-272.75,-47,568,-949,25.5,2.7,-23.9,25.5,2.8,-23.7,5.73,2.44,-24.9,30.4
2012-11-12 00:41:00,0.0,1.9033,0.0010,398.65,0.25,136.7,27.5,138.05,31.00,24.65,36.42,0.04,-272.75,-272.75,-47,568,-949,25.5,2.7,-24.0,25.5,2.8,-23.7,5.73,2.43,-24.9,30.4
2012-11-12 00:42:00,0.0,1.9027,0.0009,398.60,0.21,139.6,33.6,138.06,31.00,24.66,36.43,0.04,-272.75,-272.75,-47,568,-949,25.5,2.7,-24.1,25.5,2.8,-23.8,5.73,2.43,-24.8,30.4
2012-11-12 00:43:00,0.0,1.9021,0.0009,398.44,0.24,139.1,34.7,138.06,30.99,24.66,36.44,0.04,-272.75,-272.75,-47,568,-949,25.5,2.7,-24.0,25.5,2.7,-23.8,5.73,2.41,-24.9,30.4
2012-11-12 00:44:00,0.0,1.9020,0.0009,398.47,0.19,137.2,31.9,138.05,30.99,24.66,36.43,0.04,-272.75,-272.75,-47,568,-949,25.5,2.7,-24.1,25.5,2.7,-23.8,5.73,2.40,-24.8,30.4
2012-11-12 00:45:00,0.0,1.9021,0.0010,398.55,0.21,150.5,29.9,138.05,30.99,24.65,36.42,0.04,-272.74,-272.75,-47,568,-949,25.5,2.7,-24.1,25.5,2.7,-23.8,5.73,2.39,-24.9,30.4
2012-11-12 00:46:00,0.0,1.9019,0.0010,398.55,0.19,151.0,28.2,138.05,30.99,24.65,36.43,0.04,-272.75,-272.75,-47,568,-949,25.5,2.7,-24.0,25.5,2.8,-23.7,5.73,2.39,-24.8,30.4
2012-11-12 00:47:00,0.0,1.9016,0.0008,398.43,0.21,143.9,31.7,138.05,30.99,24.65,36.43,0.04,-272.75,-272.75,-46,568,-949,25.5,2.7,-24.0,25.5,2.8,-23.7,5.73,2.39,-24.9,30.3
2012-11-12 00:48:00,0.0,1.9009,0.0008,398.52,0.22,141.1,25.8,138.05,30.99,24.66,36.42,0.04,-272.75,-272.75,-47,568,-950,25.5,2.7,-23.9,25.5,2.8,-23.6,5.73,2.40,-24.8,30.3
2012-11-12 00:49:00,0.0,1.9006,0.0010,398.53,0.23,146.3,33.5,138.05,30.99,24.66,36.43,0.04,-272.75,-272.75,-47,568,-949,25.5,2.8,-23.8,25.5,2.8,-23.5,5.73,2.41,-24.8,30.3
2012-11-12 00:50:00,0.0,1.9000,0.0009,398.52,0.24,141.4,26.8,138.05,30.99,24.66,36.43,0.04,-272.75,-272.75,-47,567,-949,25.5,3.0,-22.9,25.5,3.0,-22.7,5.73,2.43,-24.8,30.4
2012-11-12 00:51:00,0.0,1.8998,0.0009,398.49,0.24,137.0,33.6,138.05,30.99,24.65,36.43,0.04,-272.75,-272.75,-47,568,-949,25.5,2.8,-23.4,25.5,2.9,-23.2,5.73,2.43,-24.9,30.4
2012-11-12 00:52:00,0.0,1.9000,0.0009,398.53,0.24,136.7,33.2,138.05,30.99,24.65,36.43,0.04,-272.75,-272.75,-47,568,-949,25.5,2.8,-23.4,25.5,2.9,-23.2,5.73,2.43,-24.8,30.4
2012-11-12 00:53:00,0.0,1.8996,0.0009,398.44,0.21,138.6,30.7,138.05,30.99,24.65,36.43,0.04,-272.75,-272.75,-47,568,-949,25.5,2.9,-23.3,25.5,2.9,-23.1,5.73,2.43,-24.8,30.4
2012-11-12 00:54:00,0.0,1.8989,0.0011,398.53,0.22,142.6,31.9,138.05,30.99,24.66,36.43,0.04,-272.75,-272.75,-47,568,-949,25.5,2.9,-23.3,25.5,2.9,-23.0,5.73,2.41,-24.9,30.4
2012-11-12 00:55:00,0.0,1.8978,0.0009,398.69,0.26,146.2,37.1,138.05,30.99,24.65,36.42,0.04,-272.75,-272.75,-47,568,-950,25.5,2.9,-23.2,25.5,3.0,-23.0,5.73,2.41,-24.9,30.4
2012-11-12 00:56:00,0.0,1.8977,0.0010,398.80,0.27,143.0,33.2,138.06,30.99,24.66,36.42,0.04,-272.75,-272.75,-47,568,-949,25.5,2.9,-23.2,25.5,3.0,-22.9,5.73,2.39,-24.9,30.3
2012-11-12 00:57:00,0.0,1.8992,0.0010,398.70,0.24,134.2,29.9,138.05,30.99,24.65,36.42,0.04,-272.75,-272.75,-47,568,-949,25.5,2.9,-23.1,25.5,3.0,-22.8,5.73,2.39,-24.9,30.4
2012-11-12 00:58:00,0.0,1.8993,0.0008,398.68,0.22,142.6,31.8,138.05,30.99,24.65,36.43,0.04,-272.75,-272.75,-47,568,-949,25.5,2.9,-23.1,25.5,3.0,-22.8,5.73,2.39,-24.9,30.3
2012-11-12 00:59:00,0.0,1.8999,0.0009,398.70,0.24,139.6,28.6,138.05,30.99,24.65,36.43,0.04,-272.75,-272.75,-47,567,-949,25.5,2.9,-23.2,25.5,3.0,-22.9,5.73,2.40,-24.9,30.4
2012-11-12 01:00:00,0.0,1.8991,0.0009,398.79,0.21,137.4,33.3,138.05,30.99,24.66,36.42,0.04,-272.75,-272.75,-47,568,-949,25.5,2.9,-23.3,25.5,3.0,-22.9,5.73,2.42,-24.9,30.4
2012-11-12 01:01:00,0.0,1.8990,0.0011,398.65,0.23,136.0,26.2,138.05,30.99,24.65,36.43,0.04,-272.75,-272.75,-47,567,-949,25.5,2.8,-23.4,25.5,2.9,-23.1,5.73,2.43,-24.9,30.4
2012-11-12 01:02:00,0.0,1.8990,0.0011,398.69,0.23,142.5,30.0,138.05,30.99,24.65,36.43,0.04,-272.74,-272.75,-47,567,-949,25.5,2.8,-23.4,25.5,2.9,-23.1,5.73,2.43,-24.9,30.4
2012-11-12 01:03:00,0.0,1.8983,0.0011,398.61,0.25,134.1,32.6,138.05,30.98,24.65,36.43,0.04,-272.75,-272.75,-47,568,-949,25.5,2.9,-23.3,25.5,2.9,-23.1,5.73,2.44,-24.9,30.4
2012-11-12 01:04:00,0.0,1.8984,0.0009,398.64,0.25,142.9,34.9,138.06,30.98,24.65,36.43,0.04,-272.75,-272.75,-47,567,-949,25.5,2.9,-23.3,25.5,2.9,-23.1,5.73,2.43,-24.9,30.4
2012-11-12 01:05:00,0.0,1.8982,0.0009,398.68,0.24,136.0,34.7,138.05,30.98,24.66,36.43,0.04,-272.75,-272.75,-47,568,-949,25.5,2.9,-23.3,25.5,2.9,-23.0,5.73,2.42,-24.9,30.4
2012-11-12 01:06:00,0.0,1.8981,0.0009,398.67,0.23,141.7,34.9,138.05,30.98,24.65,36.43,0.04,-272.74,-272.75,-47,567,-949,25.5,2.9,-23.2,25.5,3.0,-22.9,5.73,2.40,-24.9,30.4
2012-11-12 01:07:00,0.0,1.8979,0.0009,398.70,0.19,134.3,31.8,138.05,30.99,24.66,36.42,0.04,-272.75,-272.75,-47,568,-949,25.5,2.9,-23.1,25.5,3.0,-22.8,5.73,2.40,-24.9,30.4
2012-11-12 01:08:00,0.0,1.8982,0.0009,398.57,0.25,137.8,27.4,138.05,30.99,24.65,36.44,0.04,-272.75,-272.75,-47,567,-949,25.5,2.9,-23.0,25.5,3.0,-22.8,5.73,2.39,-24.9,30.4
2012-11-12 01:09:00,0.0,1.8982,0.0010,398.67,0.25,142.3,29.0,138.05,30.99,24.65,36.43,0.04,-272.74,-272.75,-47,567,-949,25.5,3.0,-23.0,25.5,3.0,-22.7,5.73,2.39,-24.9,30.4
2012-11-12 01:10:00,0.0,1.8976,0.0010,398.77,0.24,139.8,29.9,138.06,30.99,24.66,36.42,0.04,-272.75,-272.75,-47,567,-949,25.5,3.0,-22.8,25.5,3.0,-22.6,5.73,2.40,-24.9,30.4
2012-11-12 01:11:00,0.0,1.8984,0.0008,398.60,0.22,133.4,28.4,138.05,30.99,24.65,36.43,0.04,-272.75,-272.75,-47,567,-949,25.5,3.0,-22.8,25.6,3.1,-22.5,5.73,2.40,-24.9,30.3
2012-11-12 01:12:00,0.0,1.8979,0.0007,398.53,0.21,136.8,29.4,138.05,30.99,24.66,36.44,0.04,-272.75,-272.74,-47,568,-949,25.5,3.0,-22.8,25.5,3.1,-22.5,5.73,2.42,-24.9,30.3
2012-11-12 01:13:00,0.0,1.8980,0.0010,398.57,0.22,136.0,28.4,138.05,30.99,24.65,36.43,0.04,-272.74,-272.75,-47,568,-949,25.5,3.0,-22.7,25.5,3.1,-22.4,5.73,2.43,-24.9,30.3
2012-11-12 01:14:00,0.0,1.8978,0.0008,398.71,0.23,137.6,29.5,138.05,30.99,24.66,36.43,0.04,-272.75,-272.75,-47,568,-949,25.5,3.0,-22.7,25.5,3.1,-22.5,5.73,2.43,-24.9,30.4
2012-11-12 01:15:00,0.0,1.8981,0.0010,398.69,0.21,135.2,26.7,138.05,30.98,24.65,36.42,0.04,-272.75,-272.75,-47,567,-949,25.5,3.0,-22.7,25.5,3.1,-22.4,5.73,2.43,-24.9,30.4
2012-11-12 01:16:00,0.0,1.8980,0.0011,398.66,0.20,133.8,31.2,138.06,30.98,24.65,36.43,0.04,-272.75,-272.75,-47,568,-949,25.5,3.0,-22.6,25.5,3.1,-22.4,5.73,2.43,-24.9,30.4
2012-11-12 01:17:00,0.0,1.8982,0.0008,398.73,0.21,138.6,29.5,138.06,30.98,24.65,36.42,0.04,-272.75,-272.75,-47,568,-949,25.5,3.0,-22.7,25.5,3.1,-22.4,5.73,2.41,-24.9,30.3
2012-11-12 01:18:00,0.0,1.8979,0.0009,398.73,0.25,130.3,26.1,138.06,30.98,24.65,36.43,0.04,-272.75,-272.75,-47,568,-949,25.5,3.0,-22.7,25.5,3.1,-22.4,5.73,2.41,-24.9,30.4
2012-11-12 01:19:00,0.0,1.8976,0.0010,398.67,0.20,132.3,28.6,138.06,30.98,24.66,36.43,0.04,-272.75,-272.75,-47,568,-949,25.5,3.0,-22.8,25.5,3.1,-22.5,5.73,2.39,-24.9,30.4
2012-11-12 01:20:00,1.0,1.8839,0.0098,385.21,9.48,134.3,31.4,138.06,30.98,24.65,36.43,0.04,-272.75,-272.75,-47,616,-949,25.5,3.0,-22.8,25.5,3.0,-22.6,5.73,2.44,-24.9,30.4
2012-11-12 01:21:00,1.0,1.8724,0.0007,374.30,0.22,112.3,33.2,138.06,30.98,24.66,36.44,0.04,-272.75,-272.75,-47,613,-949,25.5,3.0,-23.0,25.5,3.0,-22.7,5.73,2.39,-25.0,30.4
2012-11-12 01:22:00,1.0,1.8723,0.0008,374.30,0.22,121.4,30.5,138.06,30.98,24.66,36.44,0.04,-272.75,-272.75,-47,612,-949,25.5,2.9,-23.0,25.5,3.0,-22.8,5.73,2.39,-24.9,30.4
2012-11-12 01:23:00,1.0,1.8725,0.0008,374.28,0.21,121.9,28.4,138.05,30.98,24.65,36.44,0.04,-272.75,-272.75,-47,612,-949,25.5,2.9,-23.0,25.5,3.0,-22.8,5.73,2.41,-25.0,30.4
2012-11-12 01:24:00,1.0,1.8725,0.0008,374.22,0.21,127.7,25.6,138.06,30.98,24.65,36.44,0.04,-272.75,-272.75,-47,612,-949,25.5,2.9,-23.0,25.5,3.0,-22.8,5.73,2.41,-25.0,30.4
2012-11-12 01:25:00,0.0,1.8872,0.0103,387.76,9.51,140.2,30.5,138.06,30.98,24.65,36.44,0.04,-272.75,-272.75,-47,566,-949,25.5,3.0,-23.0,25.5,3.0,-22.7,5.73,2.38,-25.0,30.4
2012-11-12 01:26:00,0.0,1.8983,0.0009,398.55,0.20,140.9,31.1,138.06,30.98,24.65,36.43,0.04,-272.75,-272.75,-47,566,-949,25.6,3.0,-22.9,25.5,3.0,-22.7,5.73,2.43,-24.9,30.4
2012-11-12 01:27:00,0.0,1.8986,0.0011,398.52,0.22,139.4,32.7,138.06,30.98,24.65,36.44,0.04,-272.75,-272.75,-47,566,-949,25.5,3.0,-22.8,25.5,3.1,-22.6,5.73,2.43,-24.9,30.4
2012-11-12 01:28:00,0.0,1.8981,0.0009,398.53,0.21,141.0,32.3,138.06,30.98,24.65,36.43,0.04,-272.75,-272.75,-47,567,-949,25.5,3.0,-22.7,25.5,3.1,-22.5,5.73,2.43,-24.9,30.4
2012-11-12 01:29:00,0.0,1.8980,0.0010,398.64,0.21,146.9,26.3,138.05,30.98,24.66,36.42,0.04,-272.74,-272.74,-47,567,-949,25.5,3.0,-22.7,25.5,3.1,-22.4,5.73,2.41,-24.9,30.4
2012-11-12 01:30:00,0.0,1.8976,0.0009,398.58,0.21,136.3,32.5,138.05,30.98,24.66,36.43,0.04,-272.75,-272.75,-47,567,-949,25.6,3.0,-22.6,25.5,3.1,-22.4,5.73,2.40,-24.9,30.4
2012-11-12 01:31:00,0.0,1.8978,0.0010,398.60,0.25,141.8,28.6,138.05,30.98,24.65,36.43,0.04,-272.75,-272.75,-47,567,-949,25.5,3.0,-22.7,25.5,3.1,-22.4,5.73,2.39,-24.9,30.4
2012-11-12 01:32:00,0.0,1.8982,0.0011,398.55,0.19,128.2,30.8,138.05,30.98,24.66,36.43,0.04,-272.75,-272.75,-47,567,-949,25.5,3.0,-22.7,25.5,3.1,-22.4,5.73,2.38,-24.9,30.4
2012-11-12 01:33:00,0.0,1.8980,0.0010,398.69,0.22,139.6,33.7,138.05,30.98,24.66,36.42,0.04,-272.75,-272.75,-47,567,-949,25.6,3.0,-22.7,25.5,3.1,-22.4,5.73,2.39,-24.9,30.4
2012-11-12 01:34:00,0.0,1.8978,0.0008,398.49,0.25,136.7,28.3,138.06,30.98,24.65,36.44,0.04,-272.75,-272.75,-47,567,-949,25.6,3.0,-22.7,25.5,3.1,-22.5,5.73,2.40,-25.0,30.4
2012-11-12 01:35:00,0.0,1.8974,0.0010,398.60,0.23,136.6,32.0,138.05,30.98,24.66,36.43,0.04,-272.75,-272.75,-47,567,-949,25.5,3.0,-22.8,25.5,3.1,-22.5,5.73,2.41,-25.0,30.4
2012-11-12 01:36:00,0.0,1.8972,0.0009,398.57,0.22,139.1,30.5,138.05,30.98,24.65,36.43,0.04,-272.75,-272.74,-47,567,-949,25.6,3.0,-22.7,25.5,3.1,-22.5,5.73,2.43,-25.0,30.4
2012-11-12 01:37:00,0.0,1.8981,0.0009,398.62,0.23,134.2,27.1,138.05,30.98,24.65,36.43,0.04,-272.75,-272.75,-47,567,-949,25.5,3.0,-22.7,25.5,3.1,-22.4,5.73,2.43,-25.0,30.4
2012-11-12 01:38:00,0.0,1.8975,0.0009,398.57,0.22,133.0,33.0,138.05,30.98,24.65,36.43,0.04,-272.75,-272.75,-47,567,-949,25.5,3.0,-22.6,25.5,3.1,-22.3,5.73,2.44,-25.0,30.4
2012-11-12 01:39:00,0.0,1.8973,0.0008,398.60,0.23,128.4,34.7,138.06,30.98,24.66,36.43,0.04,-272.75,-272.75,-47,567,-949,25.5,3.1,-22.5,25.5,3.1,-22.3,5.73,2.43,-25.0,30.4
2012-11-12 01:40:00,0.0,1.8979,0.0009,398.65,0.24,135.7,33.6,138.05,30.98,24.65,36.43,0.04,-272.75,-272.75,-47,567,-949,25.5,3.1,-22.5,25.5,3.2,-22.2,5.73,2.41,-25.0,30.4
2012-11-12 01:41:00,0.0,1.8975,0.0009,398.64,0.22,129.5,28.5,138.05,30.98,24.66,36.43,0.04,-272.75,-272.75,-47,567,-949,25.5,3.1,-22.5,25.5,3.2,-22.2,5.73,2.40,-25.1,30.4
2012-11-12 01:42:00,0.0,1.8974,0.0009,398.67,0.24,116.1,26.0,138.06,30.98,24.65,36.42,0.04,-272.75,-272.75,-47,567,-949,25.5,3.1,-22.4,25.5,3.2,-22.1,5.73,2.39,-25.1,30.4
2012-11-12 01:43:00,0.0,1.8977,0.0009,398.52,0.23,132.2,31.3,138.06,30.98,24.65,36.43,0.04,-272.75,-272.74,-47,567,-949,25.5,3.1,-22.4,25.5,3.2,-22.2,5.73,2.39,-25.0,30.4
2012-11-12 01:44:00,0.0,1.8974,0.0010,398.59,0.19,137.3,31.9,138.05,30.98,24.65,36.43,0.04,-272.75,-272.75,-47,567,-949,25.5,3.1,-22.4,25.5,3.2,-22.2,5.73,2.39,-25.1,30.4
2012-11-12 01:45:00,0.0,1.8969,0.0010,398.55,0.21,129.2,28.0,138.06,30.98,24.65,36.43,0.04,-272.75,-272.75,-47,567,-949,25.5,3.1,-22.6,25.5,3.1,-22.3,5.73,2.40,-25.1,30.4
2012-11-12 01:46:00,0.0,1.8968,0.0008,398.65,0.19,132.1,26.2,138.06,30.98,24.65,36.43,0.04,-272.75,-272.75,-47,567,-949,25.5,3.0,-22.7,25.5,3.1,-22.4,5.73,2.42,-25.1,30.4
2012-11-12 01:47:00,0.0,1.8971,0.0010,398.60,0.22,123.3,26.4,138.06,30.98,24.65,36.43,0.04,-272.75,-272.75,-47,567,-949,25.5,3.0,-22.8,25.5,3.1,-22.5,5.73,2.43,-25.0,30.4
2012-11-12 01:48:00,0.0,1.8967,0.0010,398.56,0.20,124.7,29.8,138.05,30.98,24.66,36.43,0.04,-272.75,-272.75,-47,567,-949,25.5,3.0,-22.9,25.5,3.0,-22.6,5.73,2.43,-25.1,30.4
2012-11-12 01:49:00,0.0,1.8973,0.0008,398.66,0.23,127.1,31.6,138.06,30.98,24.65,36.43,0.04,-272.75,-272.75,-47,567,-949,25.5,2.9,-23.1,25.5,3.0,-22.8,5.73,2.44,-25.1,30.4
2012-11-12 01:50:00,0.0,1.8974,0.0008,398.55,0.21,131.9,26.1,138.05,30.98,24.65,36.43,0.04,-272.75,-272.75,-47,567,-949,25.5,2.9,-23.1,25.5,3.0,-22.8,5.73,2.43,-25.0,30.4
2012-11-12 01:51:00,0.0,1.8969,0.0009,398.60,0.19,138.8,26.6,138.05,30.98,24.66,36.43,0.04,-272.75,-272.75,-47,567,-949,25.5,2.9,-23.1,25.5,3.0,-22.9,5.73,2.42,-25.1,30.4
2012-11-12 01:52:00,0.0,1.8968,0.0011,398.57,0.23,136.3,33.8,138.05,30.98,24.66,36.43,0.04,-272.75,-272.75,-47,567,-949,25.5,2.9,-23.1,25.5,3.0,-22.8,5.73,2.40,-25.1,30.4
2012-11-12 01:53:00,0.0,1.8980,0.0010,398.71,0.21,135.9,27.2,138.05,30.98,24.65,36.42,0.04,-272.75,-272.75,-47,567,-949,25.5,2.9,-23.1,25.5,3.0,-22.9,5.73,2.39,-25.1,30.4
2012-11-12 01:54:00,0.0,1.8974,0.0010,398.65,0.19,133.2,33.1,138.05,30.98,24.66,36.42,0.04,-272.75,-272.75,-47,567,-949,25.5,2.9,-23.1,25.5,3.0,-22.8,5.73,2.39,-25.1,30.4
2012-11-12 01:55:00,0.0,1.8986,0.0010,398.76,0.25,130.6,27.8,138.06,30.98,24.65,36.42,0.04,-272.75,-272.75,-47,567,-949,25.5,2.9,-23.1,25.5,3.0,-22.9,5.73,2.39,-25.1,30.4
2012-11-12 01:56:00,0.0,1.8983,0.0008,398.71,0.19,134.4,25.9,138.05,30.98,24.65,36.42,0.04,-272.75,-272.75,-47,567,-949,25.5,2.9,-23.2,25.5,3.0,-22.9,5.73,2.40,-25.1,30.4
2012-11-12 01:57:00,0.0,1.8979,0.0010,398.58,0.25,129.6,25.0,138.06,30.98,24.65,36.43,0.04,-272.75,-272.75,-47,567,-949,25.5,2.9,-23.3,25.5,2.9,-23.0,5.73,2.41,-25.1,30.4
2012-11-12 01:58:00,0.0,1.8978,0.0009,398.68,0.21,129.3,33.7,138.06,30.97,24.66,36.42,0.04,-272.75,-272.75,-47,567,-949,25.5,2.9,-23.3,25.5,2.9,-23.1,5.73,2.42,-25.1,30.4
2012-11-12 01:59:00,0.0,1.8979,0.0008,398.53,0.21,133.4,28.3,138.05,30.97,24.65,36.43,0.04,-272.75,-272.75,-47,567,-949,25.5,2.9,-23.3,25.5,3.0,-23.0,5.73,2.43,-24.8,30.4
2012-11-12 02:00:00,0.0,1.8974,0.0011,398.55,0.19,129.2,28.4,138.05,30.97,24.66,36.43,0.04,-272.75,-272.75,-47,567,-949,25.5,2.9,-23.1,25.5,3.0,-22.9,5.73,2.43,-24.7,30.4
2012-11-12 02:01:00,0.0,1.8967,0.0009,398.56,0.20,139.9,29.2,138.06,30.97,24.66,36.43,0.04,-272.75,-272.75,-47,567,-949,25.5,2.9,-23.0,25.5,3.0,-22.8,5.73,2.44,-24.7,30.4
2012-11-12 02:02:00,0.0,1.8968,0.0008,398.56,0.18,130.4,28.0,138.06,30.97,24.65,36.43,0.04,-272.75,-272.75,-47,567,-949,25.5,3.0,-23.0,25.5,3.0,-22.7,5.73,2.42,-24.7,30.4
2012-11-12 02:03:00,0.0,1.8965,0.0009,398.51,0.20,130.8,31.5,138.05,30.97,24.65,36.43,0.04,-272.75,-272.75,-47,567,-949,25.5,3.0,-22.9,25.5,3.0,-22.6,5.73,2.41,-24.7,30.4
2012-11-12 02:04:00,0.0,1.8967,0.0010,398.43,0.20,135.6,26.8,138.06,30.97,24.65,36.44,0.04,-272.75,-272.75,-47,567,-949,25.5,2.9,-23.0,25.5,3.0,-22.7,5.73,2.40,-24.7,30.4
2012-11-12 02:05:00,0.0,1.8972,0.0011,398.50,0.24,136.2,25.5,138.05,30.97,24.65,36.43,0.04,-272.75,-272.75,-47,567,-949,25.5,2.9,-23.2,25.5,3.0,-22.9,5.73,2.39,-24.7,30.4
2012-11-12 02:06:00,0.0,1.8969,0.0008,398.59,0.25,138.1,27.0,138.06,30.97,24.66,36.42,0.04,-272.75,-272.74,-47,567,-949,25.5,2.9,-23.3,25.5,2.9,-23.0,5.73,2.39,-24.7,30.4
2012-11-12 02:07:00,0.0,1.8966,0.0010,398.50,0.22,136.9,33.9,138.05,30.97,24.66,36.43,0.04,-272.75,-272.75,-47,567,-949,25.5,3.6,-20.9,25.5,3.6,-20.8,5.73,2.39,-24.7,30.4
2012-11-12 02:08:00,0.0,1.8968,0.0010,398.56,0.26,129.6,30.0,138.05,30.97,24.65,36.42,0.04,-272.75,-272.75,-47,567,-949,25.5,3.0,-22.7,25.5,3.1,-22.4,5.73,2.40,-24.7,30.4
2012-11-12 02:09:00,0.0,1.8968,0.0011,398.51,0.20,136.4,27.6,138.05,30.97,24.66,36.43,0.04,-272.75,-272.75,-47,567,-949,25.5,2.8,-23.4,25.5,2.9,-23.2,5.73,2.41,-24.7,30.4
2012-11-12 02:10:00,0.0,1.8970,0.0008,398.45,0.22,125.8,32.8,138.06,30.97,24.65,36.43,0.04,-272.74,-272.75,-47,567,-949,25.5,2.8,-23.6,25.5,2.9,-23.2,5.73,2.43,-24.7,30.4
2012-11-12 02:11:00,0.0,1.8974,0.0011,398.56,0.25,129.4,29.5,138.05,30.97,24.65,36.43,0.04,-272.75,-272.75,-47,567,-949,25.5,2.8,-23.6,25.5,2.9,-23.3,5.73,2.43,-24.7,30.4
2012-11-12 02:12:00,0.0,1.8976,0.0010,398.59,0.27,135.8,29.7,138.06,30.98,24.65,36.43,0.04,-272.75,-272.75,-47,567,-949,25.5,2.8,-23.5,25.5,2.9,-23.3,5.73,2.43,-24.7,30.4
2012-11-12 02:13:00,0.0,1.8976,0.0009,398.61,0.18,126.1,32.2,138.05,30.98,24.66,36.43,0.04,-272.75,-272.75,-47,567,-949,25.5,2.8,-23.4,25.5,2.9,-23.1,5.73,2.42,-24.7,30.4
2012-11-12 02:14:00,0.0,1.8971,0.0012,398.56,0.23,128.8,28.1,138.05,30.97,24.66,36.43,0.04,-272.75,-272.75,-47,567,-949,25.5,2.9,-23.2,25.5,2.9,-23.0,5.73,2.41,-24.7,30.4
2012-11-12 02:15:00,0.0,1.8966,0.0011,398.60,0.26,131.0,26.6,138.06,30.97,24.66,36.43,0.04,-272.75,-272.75,-47,567,-949,25.5,2.9,-23.1,25.5,3.0,-22.9,5.73,2.40,-24.7,30.4
2012-11-12 02:16:00,0.0,1.8978,0.0009,398.68,0.20,131.2,29.1,138.06,30.97,24.65,36.42,0.04,-272.75,-272.75,-47,567,-949,25.5,2.9,-23.0,25.5,3.0,-22.7,5.73,2.39,-24.7,30.4